When you browse on this site, cookies collect data to enhance your experience and personalize the content and advertising you see.
Visit our Privacy Policy to learn more. By continuing to use the site, you agree to this use of cookies and data.
  • In Lithuania
  • List of Countries
  • For 7 days
  • Water Temperature
  • Weather Map
  • Weather Widgets
  • user-avatar
    Login

    Hourly Weather Dahab

    Today, 15 November, Friday

    Time Temperature Precipitation Wind Pressure Humidity
    00:00 +19°C° 0 mm 0 mps 713 mmHg 60%
    01:00 +19°C° 0 mm 0 mps 713 mmHg 58%
    02:00 +19°C° 0 mm 0 mps 712 mmHg 62%
    03:00 +18°C° 0 mm 0 mps 713 mmHg 63%
    04:00 +18°C° 0 mm 0 mps 713 mmHg 63%
    05:00 +18°C° 0 mm 0 mps 713 mmHg 63%
    06:00 +20°C° 0 mm 0 mps 713 mmHg 56%
    07:00 +24°C° 0 mm 1 mps 714 mmHg 49%
    08:00 +26°C° 0 mm 1 mps 714 mmHg 40%
    09:00 +27°C° 0 mm 2 mps 714 mmHg 37%
    10:00 +28°C° 0 mm 3 mps 715 mmHg 34%
    11:00 +29°C° 0 mm 4 mps 715 mmHg 31%
    12:00 +29°C° 0 mm 4 mps 714 mmHg 30%
    13:00 +29°C° 0 mm 4 mps 714 mmHg 29%
    14:00 +29°C° 0 mm 4 mps 713 mmHg 31%
    15:00 +27°C° 0 mm 4 mps 713 mmHg 38%
    16:00 +26°C° 0 mm 3 mps 713 mmHg 46%
    17:00 +24°C° 0 mm 3 mps 713 mmHg 54%
    18:00 +22°C° 0 mm 3 mps 713 mmHg 57%
    19:00 +22°C° 0 mm 3 mps 713 mmHg 60%
    20:00 +21°C° 0 mm 4 mps 713 mmHg 63%
    21:00 +21°C° 0 mm 4 mps 714 mmHg 65%
    22:00 +20°C° 0 mm 4 mps 714 mmHg 67%
    23:00 +19°C° 0 mm 4 mps 714 mmHg 69%

    Tomorrow, 16 November, Saturday

    Time Temperature Precipitation Wind Pressure Humidity
    00:00 +19°C° 0 mm 4 mps 713 mmHg 69%
    01:00 +18°C° 0 mm 4 mps 713 mmHg 70%
    02:00 +18°C° 0 mm 3 mps 713 mmHg 70%
    03:00 +17°C° 0 mm 4 mps 713 mmHg 69%
    04:00 +17°C° 0 mm 4 mps 713 mmHg 68%
    05:00 +15°C° 0 mm 4 mps 713 mmHg 67%
    06:00 +18°C° 0 mm 4 mps 713 mmHg 56%
    07:00 +19°C° 0 mm 4 mps 713 mmHg 45%
    08:00 +20°C° 0 mm 4 mps 713 mmHg 34%
    09:00 +21°C° 0 mm 5 mps 713 mmHg 31%
    10:00 +23°C° 0 mm 5 mps 713 mmHg 28%
    11:00 +25°C° 0 mm 5 mps 713 mmHg 25%
    12:00 +24°C° 0 mm 6 mps 712 mmHg 27%
    13:00 +26°C° 0 mm 6 mps 712 mmHg 28%
    14:00 +26°C° 0 mm 6 mps 711 mmHg 30%
    15:00 +24°C° 0 mm 6 mps 711 mmHg 33%
    16:00 +22°C° 0 mm 5 mps 711 mmHg 36%
    17:00 +21°C° 0 mm 5 mps 711 mmHg 39%
    18:00 +20°C° 0 mm 5 mps 711 mmHg 42%
    19:00 +19°C° 0 mm 5 mps 711 mmHg 46%
    20:00 +19°C° 0 mm 5 mps 711 mmHg 49%
    21:00 +17°C° 0 mm 5 mps 711 mmHg 52%
    22:00 +17°C° 0 mm 5 mps 711 mmHg 55%
    23:00 +17°C° 0 mm 5 mps 711 mmHg 58%

    Day after tomorrow, 17 November, Sunday

    Time Temperature Precipitation Wind Pressure Humidity
    00:00 +16°C° 0 mm 5 mps 711 mmHg 58%
    01:00 +17°C° 0 mm 4 mps 711 mmHg 59%
    02:00 +17°C° 0 mm 4 mps 711 mmHg 60%
    03:00 +17°C° 0 mm 4 mps 711 mmHg 60%
    04:00 +17°C° 0 mm 4 mps 711 mmHg 60%
    05:00 +17°C° 0 mm 3 mps 711 mmHg 61%
    06:00 +18°C° 0 mm 3 mps 711 mmHg 57%
    07:00 +19°C° 0 mm 3 mps 712 mmHg 53%
    08:00 +21°C° 0 mm 3 mps 712 mmHg 49%
    09:00 +22°C° 0 mm 3 mps 712 mmHg 45%
    10:00 +24°C° 0 mm 3 mps 712 mmHg 41%
    11:00 +25°C° 0 mm 3 mps 712 mmHg 38%
    12:00 +25°C° 0 mm 3 mps 712 mmHg 37%
    13:00 +26°C° 0 mm 3 mps 711 mmHg 36%
    14:00 +26°C° 0 mm 3 mps 711 mmHg 35%
    15:00 +25°C° 0 mm 2 mps 711 mmHg 39%
    16:00 +23°C° 0 mm 1 mps 711 mmHg 44%
    17:00 +22°C° 0 mm 1 mps 711 mmHg 48%
    18:00 +22°C° 0 mm 1 mps 712 mmHg 48%
    19:00 +21°C° 0 mm 1 mps 712 mmHg 48%
    20:00 +20°C° 0 mm 2 mps 712 mmHg 48%
    21:00 +20°C° 0 mm 2 mps 712 mmHg 50%
    22:00 +19°C° 0 mm 2 mps 712 mmHg 52%
    23:00 +19°C° 0 mm 2 mps 712 mmHg 54%

    18 November, Monday

    Time Temperature Precipitation Wind Pressure Humidity
    00:00 +19°C° 0 mm 2 mps 712 mmHg 55%
    01:00 +19°C° 0 mm 2 mps 712 mmHg 56%
    02:00 +18°C° 0 mm 2 mps 712 mmHg 57%
    03:00 +18°C° 0 mm 2 mps 712 mmHg 59%
    04:00 +18°C° 0 mm 2 mps 712 mmHg 60%
    05:00 +18°C° 0 mm 2 mps 712 mmHg 62%
    06:00 +19°C° 0 mm 2 mps 713 mmHg 57%
    07:00 +20°C° 0 mm 2 mps 713 mmHg 53%
    08:00 +23°C° 0 mm 2 mps 713 mmHg 48%
    09:00 +22°C° 0 mm 3 mps 714 mmHg 46%
    10:00 +24°C° 0 mm 3 mps 714 mmHg 43%
    11:00 +25°C° 0 mm 4 mps 714 mmHg 40%
    12:00 +26°C° 0 mm 4 mps 713 mmHg 39%
    13:00 +26°C° 0 mm 4 mps 713 mmHg 39%
    14:00 +26°C° 0 mm 4 mps 713 mmHg 39%
    15:00 +25°C° 0 mm 3 mps 713 mmHg 41%
    16:00 +24°C° 0 mm 2 mps 713 mmHg 44%
    17:00 +23°C° 0 mm 1 mps 713 mmHg 47%
    18:00 +22°C° 0 mm 1 mps 713 mmHg 49%
    19:00 +21°C° 0 mm 1 mps 713 mmHg 51%
    20:00 +20°C° 0 mm 1 mps 713 mmHg 53%
    21:00 +20°C° 0 mm 1 mps 714 mmHg 54%
    22:00 +18°C° 0 mm 2 mps 714 mmHg 55%
    23:00 +18°C° 0 mm 2 mps 714 mmHg 56%

    19 November, Tuesday

    Time Temperature Precipitation Wind Pressure Humidity
    00:00 +18°C° 0 mm 2 mps 713 mmHg 57%
    01:00 +17°C° 0 mm 3 mps 713 mmHg 58%
    02:00 +17°C° 0 mm 3 mps 713 mmHg 58%
    03:00 +17°C° 0 mm 3 mps 713 mmHg 59%
    04:00 +16°C° 0 mm 3 mps 713 mmHg 59%
    05:00 +16°C° 0 mm 3 mps 714 mmHg 59%
    06:00 +18°C° 0 mm 3 mps 714 mmHg 53%
    07:00 +19°C° 0 mm 3 mps 715 mmHg 47%
    08:00 +21°C° 0 mm 3 mps 715 mmHg 41%
    09:00 +22°C° 0 mm 3 mps 715 mmHg 38%
    10:00 +23°C° 0 mm 4 mps 715 mmHg 35%
    11:00 +25°C° 0 mm 4 mps 715 mmHg 31%
    12:00 +25°C° 0 mm 4 mps 714 mmHg 31%
    13:00 +26°C° 0 mm 4 mps 714 mmHg 30%
    14:00 +26°C° 0 mm 4 mps 713 mmHg 30%
    15:00 +24°C° 0 mm 3 mps 713 mmHg 34%
    16:00 +22°C° 0 mm 3 mps 713 mmHg 37%
    17:00 +20°C° 0 mm 2 mps 713 mmHg 41%
    18:00 +20°C° 0 mm 2 mps 713 mmHg 41%
    19:00 +19°C° 0 mm 2 mps 714 mmHg 40%
    20:00 +19°C° 0 mm 2 mps 714 mmHg 39%
    21:00 +19°C° 0 mm 2 mps 714 mmHg 40%
    22:00 +18°C° 0 mm 2 mps 714 mmHg 41%
    23:00 +18°C° 0 mm 3 mps 714 mmHg 41%

    20 November, Wednesday

    Time Temperature Precipitation Wind Pressure Humidity
    00:00 +17°C° 0 mm 3 mps 714 mmHg 43%
    01:00 +17°C° 0 mm 3 mps 713 mmHg 46%
    02:00 +16°C° 0 mm 3 mps 713 mmHg 48%
    03:00 +16°C° 0 mm 2 mps 713 mmHg 50%
    04:00 +15°C° 0 mm 2 mps 713 mmHg 52%
    05:00 +15°C° 0 mm 2 mps 713 mmHg 54%
    06:00 +17°C° 0 mm 2 mps 714 mmHg 47%
    07:00 +19°C° 0 mm 2 mps 714 mmHg 41%
    08:00 +21°C° 0 mm 2 mps 715 mmHg 35%
    09:00 +23°C° 0 mm 2 mps 715 mmHg 33%
    10:00 +24°C° 0 mm 3 mps 715 mmHg 31%
    11:00 +25°C° 0 mm 3 mps 715 mmHg 29%
    12:00 +25°C° 0 mm 3 mps 714 mmHg 29%
    13:00 +25°C° 0 mm 3 mps 714 mmHg 30%
    14:00 +26°C° 0 mm 3 mps 713 mmHg 31%
    15:00 +24°C° 0 mm 2 mps 713 mmHg 36%
    16:00 +21°C° 0 mm 2 mps 713 mmHg 41%
    17:00 +20°C° 0 mm 1 mps 713 mmHg 46%
    18:00 +20°C° 0 mm 1 mps 713 mmHg 47%
    19:00 +19°C° 0 mm 1 mps 713 mmHg 49%
    20:00 +19°C° 0 mm 1 mps 713 mmHg 50%
    21:00 +19°C° 0 mm 1 mps 713 mmHg 49%
    22:00 +17°C° 0 mm 2 mps 714 mmHg 47%
    23:00 +17°C° 0 mm 2 mps 714 mmHg 45%
    Show more